Regional Weather Roundup
Issued by NWS Goodland, KS

Home | Current Version | Previous Version | Graphics & Text | Print | Product List | Glossary On
Versions: 1 2 3 4 5 6 7 8 9 10 11 12 13 14 15 16 17 18 19 20 21 22 23 24 25 26 27 28 29 30 31 32 33 34 35 36 37 38 39 40 41 42 43 44 45 46 47 48 49 50
000
ASUS43 KGLD 032159
RWRGLD

GOODLAND FORECAST AREA HOURLY WEATHER ROUNDUP
NATIONAL WEATHER SERVICE GOODLAND KS
400 PM MDT MON AUG 03 2015

...OFFICIAL OBSERVATIONS...

CITY           SKY/WX    TMP DP  RH WIND       PRES   REMARKS
GOODLAND KS    CLOUDY    89  58  34 SE12      29.99S
HILL CITY KS   PTSUNNY   94  65  38 SE12      29.92F
IMPERIAL NEB   CLOUDY    87  64  46 SE12      29.97F
MCCOOK NEB     PTSUNNY   91  69  48 E15       29.94F
AKRON CO       CLOUDY    84  49  29 SE16      30.05F
BURLINGTON CO  CLOUDY    84  56  38 SE13      30.03S
LIMON CO       LGT RAIN  65  55  70 S10       30.15R
$$

...UNOFFICIAL OBSERVATIONS...

CITY           SKY/WX    TMP DP  RH WIND       PRES   REMARKS
COLBY KS       MOSUNNY   91  66  43 SE16      29.98F
NORTON KS      SUNNY     90  57  33 SE5       29.93
SHARON SPRINGS   N/A     86  64  47 E9G20       N/A
KIT CARSON CO    N/A     78  60  54 MISG        N/A
YUMA CO          N/A     84  54  35 CALM        N/A
$$


USA.gov is the U.S. government's official web portal to all federal, state and local government web resources and services.